EW9606 Rhodes GR current weather conditions

sailwx.info

Wind from 263 at 13 knots gusting 13

Air temperature 26.1° C
Dewpoint 21.1° C

Last reported at 2020-Aug-09 08:06 UTC.
Time now 2020-Aug-09 08:34 UTC

Location: N 36°26' E 028°14'.
View on Google Maps.

See reports from other nearby stations

  
Tides and Currents Weather Stations Pressure Air Temp Water Temp Dewpoint Dewpoint Depression Visibility Wind Speed Wind Dir Waves Ship Positions
date/time (UTC)wind fromknots sea level pressurealtimeterstation pressurevisibilityair tempwater tempwave heightnotes
2020-Aug-09 08:06 263 13 gusting 13 26.1
2020-Aug-09 08:01 273 10 gusting 13 26.1
2020-Aug-09 07:56 263 12 gusting 13 26.1
2020-Aug-09 07:51 257 8 gusting 12 26.1
2020-Aug-09 07:46 287 8 gusting 12 26.1
2020-Aug-09 07:41 288 10 gusting 12 26.1
2020-Aug-09 07:36 328 7 gusting 14 26.1
2020-Aug-09 07:31 318 10 gusting 14 26.1
2020-Aug-09 07:26 344 9 gusting 12 25.6
2020-Aug-09 07:21 314 5 gusting 10 25.6
2020-Aug-09 07:16 293 6 gusting 12 25.6
2020-Aug-09 07:11 280 8 gusting 13 25.6
2020-Aug-09 07:06 312 11 gusting 13 25.6
2020-Aug-09 07:01 293 10 gusting 14 25.6
2020-Aug-09 06:56 338 8 gusting 11 25.6
2020-Aug-09 06:51 296 8 gusting 11 25.6
2020-Aug-09 06:46 273 7 gusting 10 25.6
2020-Aug-09 06:41 324 10 gusting 12 25.6
2020-Aug-09 06:36 285 6 gusting 10 25.0
2020-Aug-09 06:31 273 6 gusting 13 25.0
2020-Aug-09 06:26 279 9 gusting 10 25.0
2020-Aug-09 06:21 281 7 gusting 10 25.0
2020-Aug-09 06:16 322 8 gusting 8 25.0
2020-Aug-09 06:11 248 7 gusting 12 25.0
2020-Aug-09 06:06 282 7 gusting 8 25.0
2020-Aug-09 06:01 267 10 gusting 12 25.0
2020-Aug-09 05:56 304 7 gusting 12 25.0
2020-Aug-09 05:51 274 6 gusting 12 25.0
2020-Aug-09 05:46 293 8 gusting 12 24.4
2020-Aug-09 05:41 292 11 gusting 12 24.4
2020-Aug-09 05:36 338 10 gusting 13 24.4
2020-Aug-09 05:31 308 6 gusting 13 24.4
2020-Aug-09 05:26 292 8 gusting 11 24.4
2020-Aug-09 05:21 276 7 gusting 11 24.4
2020-Aug-09 05:16 230 7 gusting 10 24.4
2020-Aug-09 05:11 292 6 gusting 10 24.4
2020-Aug-09 05:06 297 9 gusting 12 24.4
2020-Aug-09 05:01 324 6 gusting 7 24.4
2020-Aug-09 04:56 285 6 gusting 10 23.9
2020-Aug-09 04:51 324 8 gusting 12 23.9
2020-Aug-09 04:47 292 10 gusting 12 23.9
2020-Aug-09 04:41 292 10 gusting 11 23.9
2020-Aug-09 04:36 292 8 gusting 15 23.9
2020-Aug-09 04:31 003 8 gusting 13 23.9
2020-Aug-09 04:26 308 11 gusting 13 23.9
2020-Aug-09 04:21 281 10 gusting 13 23.9
2020-Aug-09 04:16 292 10 gusting 12 23.9
2020-Aug-09 04:11 308 11 gusting 13 23.9
2020-Aug-09 04:06 248 7 gusting 12 23.9
2020-Aug-09 04:01 312 12 gusting 12 23.9
2020-Aug-09 03:56 266 8 gusting 10 23.9
2020-Aug-09 03:51 317 6 gusting 11 23.9
2020-Aug-09 03:46 319 8 gusting 13 23.9
2020-Aug-09 03:41 303 10 gusting 13 23.3
2020-Aug-09 03:36 292 6 gusting 12 23.9
2020-Aug-09 03:31 292 6 gusting 10 23.9
2020-Aug-09 03:26 292 9 gusting 13 23.9
2020-Aug-09 03:21 292 11 gusting 13 23.3
2020-Aug-09 03:16 248 8 gusting 8 23.3
2020-Aug-09 03:11 343 9 gusting 13 23.3
2020-Aug-09 03:06 304 7 gusting 13 23.9
2020-Aug-09 03:01 292 7 gusting 13 23.9
2020-Aug-09 02:56 248 11 gusting 14 23.3
2020-Aug-09 02:51 264 9 gusting 12 23.9
2020-Aug-09 02:46 322 10 gusting 13 23.9
2020-Aug-09 02:41 299 10 gusting 13 23.9
2020-Aug-09 02:36 325 13 gusting 18 23.9
2020-Aug-09 02:31 307 12 gusting 13 23.9
2020-Aug-09 02:26 293 6 gusting 19 23.9
2020-Aug-09 02:21 275 10 gusting 19 23.9
2020-Aug-09 02:16 328 10 gusting 19 23.9
2020-Aug-09 02:11 285 9 gusting 13 23.3
2020-Aug-09 02:06 284 7 gusting 14 23.3
2020-Aug-09 02:01 259 12 gusting 14 23.3
2020-Aug-09 01:56 306 8 gusting 15 23.3
2020-Aug-09 01:51 290 9 gusting 13 23.9
2020-Aug-09 01:46 241 11 gusting 13 23.9
2020-Aug-09 01:41 292 11 gusting 12 23.9
2020-Aug-09 01:36 292 8 gusting 12 23.9
2020-Aug-09 01:31 262 8 gusting 13 23.9
2020-Aug-09 01:26 299 9 gusting 13 23.9
2020-Aug-09 01:21 264 8 gusting 15 23.3
2020-Aug-09 01:16 292 7 gusting 13 23.3
2020-Aug-09 01:11 045 9 gusting 14 23.9
2020-Aug-09 01:06 292 10 gusting 14 23.3
2020-Aug-09 01:01 304 10 gusting 13 23.9
2020-Aug-09 00:56 309 12 gusting 13 23.3
2020-Aug-09 00:51 292 7 gusting 10 23.3
2020-Aug-09 00:46 296 9 gusting 11 23.3
2020-Aug-09 00:41 292 6 gusting 12 23.3
2020-Aug-09 00:36 257 12 gusting 13 23.3
2020-Aug-09 00:31 282 10 gusting 13 23.3
2020-Aug-09 00:26 265 10 gusting 13 23.3
2020-Aug-09 00:21 302 12 gusting 13 23.3
2020-Aug-09 00:16 338 10 gusting 13 23.3
2020-Aug-09 00:11 292 7 gusting 10 23.3
2020-Aug-09 00:06 262 8 gusting 12 23.3
2020-Aug-09 00:01 310 8 gusting 13 23.9
2020-Aug-08 23:56 293 8 gusting 11 23.9
2020-Aug-08 23:51 106 7 gusting 12 23.9
2020-Aug-08 23:46 326 6 gusting 11 23.9
2020-Aug-08 23:41 305 9 gusting 12 23.9
2020-Aug-08 23:36 292 8 gusting 13 23.9
2020-Aug-08 23:31 292 6 gusting 11 23.9
2020-Aug-08 23:26 329 12 gusting 12 23.9
2020-Aug-08 23:21 308 9 gusting 11 23.9
2020-Aug-08 23:16 259 6 gusting 8 23.9
2020-Aug-08 23:11 298 9 gusting 12 23.9
2020-Aug-08 23:06 326 7 gusting 11 23.9
2020-Aug-08 23:01 317 7 gusting 12 23.9
2020-Aug-08 22:56 274 10 gusting 12 23.9
2020-Aug-08 22:51 310 7 gusting 11 23.9
2020-Aug-08 22:46 265 8 gusting 11 23.9
2020-Aug-08 22:41 304 7 gusting 13 23.9
2020-Aug-08 22:36 305 12 gusting 13 23.9
2020-Aug-08 22:31 307 8 gusting 12 23.9
2020-Aug-08 22:26 292 11 gusting 13 23.9
2020-Aug-08 22:21 305 8 gusting 12 23.9
2020-Aug-08 22:16 292 12 gusting 13 23.9
2020-Aug-08 22:11 338 10 gusting 13 23.9
2020-Aug-08 22:06 287 11 gusting 13 23.9
2020-Aug-08 22:01 279 8 gusting 11 23.9
2020-Aug-08 21:56 295 10 gusting 12 23.9
2020-Aug-08 21:51 305 9 gusting 12 23.9
2020-Aug-08 21:46 264 7 gusting 13 24.4
2020-Aug-08 21:41 304 9 gusting 13 24.4
2020-Aug-08 21:36 260 10 gusting 10 24.4
2020-Aug-08 21:31 322 8 gusting 8 24.4
2020-Aug-08 21:26 277 7 gusting 13 24.4
2020-Aug-08 21:21 274 11 gusting 13 24.4
2020-Aug-08 21:16 292 9 gusting 13 24.4
2020-Aug-08 21:11 301 8 gusting 12 24.4
2020-Aug-08 21:06 299 8 gusting 12 24.4
2020-Aug-08 21:01 285 8 gusting 12 24.4
2020-Aug-08 20:56 318 11 gusting 12 24.4
2020-Aug-08 20:51 253 8 gusting 11 24.4
2020-Aug-08 20:46 292 11 gusting 12 24.4
2020-Aug-08 20:41 287 6 gusting 11 24.4
2020-Aug-08 20:36 282 9 gusting 12 24.4
2020-Aug-08 20:31 305 8 gusting 12 24.4
2020-Aug-08 20:26 299 8 gusting 12 24.4
2020-Aug-08 20:21 290 8 gusting 12 24.4
2020-Aug-08 20:16 265 7 gusting 10 24.4
2020-Aug-08 20:11 346 8 gusting 10 24.4
2020-Aug-08 20:06 273 9 gusting 12 24.4
2020-Aug-08 20:01 308 10 gusting 12 24.4
2020-Aug-08 19:56 332 7 gusting 13 24.4
2020-Aug-08 19:51 275 6 gusting 10 24.4
2020-Aug-08 19:46 292 10 gusting 15 24.4
2020-Aug-08 19:41 318 8 gusting 13 24.4
2020-Aug-08 19:36 275 10 gusting 13 24.4
2020-Aug-08 19:31 284 8 gusting 13 24.4
2020-Aug-08 19:26 287 10 gusting 15 24.4
2020-Aug-08 19:21 314 11 gusting 13 24.4
2020-Aug-08 19:16 262 8 gusting 12 24.4
2020-Aug-08 19:11 338 10 gusting 12 24.4
2020-Aug-08 19:06 315 8 gusting 19 24.4
2020-Aug-08 19:01 292 7 gusting 12 24.4
2020-Aug-08 18:56 292 8 gusting 12 24.4
2020-Aug-08 18:51 264 10 gusting 15 24.4
2020-Aug-08 18:46 269 10 gusting 13 24.4
2020-Aug-08 18:41 287 12 gusting 15 24.4
2020-Aug-08 18:36 292 13 gusting 13 24.4
2020-Aug-08 18:31 320 8 gusting 12 24.4
2020-Aug-08 18:26 306 12 gusting 15 24.4
2020-Aug-08 18:21 324 15 gusting 19 25.0
2020-Aug-08 18:16 280 8 gusting 13 25.0
2020-Aug-08 18:11 272 11 gusting 12 25.0
2020-Aug-08 18:06 282 7 gusting 13 25.0
2020-Aug-08 18:01 310 9 gusting 13 25.0
2020-Aug-08 17:56 301 12 gusting 15 25.0
2020-Aug-08 17:51 305 11 gusting 18 25.0
2020-Aug-08 17:46 283 11 gusting 13 25.0
2020-Aug-08 17:41 292 11 gusting 14 25.0
2020-Aug-08 17:36 210 13 gusting 17 25.0
2020-Aug-08 17:31 291 9 gusting 15 25.0
2020-Aug-08 17:26 266 8 gusting 18 25.0
2020-Aug-08 17:21 248 8 gusting 14 25.0
2020-Aug-08 17:16 292 11 gusting 13 25.0
2020-Aug-08 17:11 300 13 gusting 14 25.0
2020-Aug-08 17:06 245 11 gusting 18 25.0
2020-Aug-08 17:01 292 8 gusting 13 25.0
2020-Aug-08 16:56 303 8 gusting 13 25.6
2020-Aug-08 16:51 271 13 gusting 18 25.6
2020-Aug-08 16:46 273 10 gusting 13 26.1
2020-Aug-08 16:41 289 12 gusting 14 26.1
2020-Aug-08 16:36 292 12 gusting 18 26.1
2020-Aug-08 16:31 261 13 gusting 18 26.1
2020-Aug-08 16:26 279 13 gusting 13 26.7
2020-Aug-08 16:21 304 13 gusting 19 26.7
2020-Aug-08 16:16 274 13 gusting 18 26.7
2020-Aug-08 16:11 307 13 gusting 15 26.7
2020-Aug-08 16:06 248 14 gusting 15 27.2
2020-Aug-08 16:01 292 14 gusting 15 27.2
2020-Aug-08 15:56 294 10 gusting 13 27.2
2020-Aug-08 15:51 281 13 gusting 14 27.2
2020-Aug-08 15:46 331 8 gusting 13 27.2
2020-Aug-08 15:41 270 10 gusting 11 27.2
2020-Aug-08 15:36 337 11 gusting 13 27.2
2020-Aug-08 15:31 299 12 gusting 12 27.8
2020-Aug-08 15:26 248 9 gusting 15 27.2
2020-Aug-08 15:21 292 9 gusting 18 27.8
2020-Aug-08 15:16 275 15 gusting 18 27.8
2020-Aug-08 15:11 316 12 gusting 13 27.8
2020-Aug-08 15:06 278 14 gusting 15 27.8
2020-Aug-08 15:01 285 11 gusting 13 27.8
2020-Aug-08 14:56 248 10 gusting 13 27.8
2020-Aug-08 14:51 292 13 gusting 15 27.8
2020-Aug-08 14:46 279 13 gusting 18 27.8
2020-Aug-08 14:41 288 6 gusting 14 27.8
2020-Aug-08 14:36 257 11 gusting 17 27.8
2020-Aug-08 14:31 292 17 gusting 17 27.8
2020-Aug-08 14:26 350 12 gusting 13 27.8
2020-Aug-08 14:21 305 15 gusting 19 27.8
2020-Aug-08 14:16 289 13 gusting 19 27.8
2020-Aug-08 14:11 007 10 gusting 13 27.8
2020-Aug-08 14:06 296 11 gusting 13 27.8
2020-Aug-08 14:01 298 10 gusting 13 27.8
2020-Aug-08 13:56 291 11 gusting 18 27.8
2020-Aug-08 13:51 292 13 gusting 18 27.8
2020-Aug-08 13:46 290 14 gusting 19 27.8
2020-Aug-08 13:41 292 10 gusting 14 28.3
2020-Aug-08 13:36 288 10 gusting 14 27.8
2020-Aug-08 13:31 334 12 gusting 15 27.8
2020-Aug-08 13:26 274 7 gusting 15 27.8
2020-Aug-08 13:21 292 13 gusting 15 27.8
2020-Aug-08 13:16 283 12 gusting 14 27.8
2020-Aug-08 13:11 259 14 gusting 19 27.8
2020-Aug-08 13:06 004 13 gusting 19 27.8
2020-Aug-08 13:01 288 13 gusting 18 27.8
2020-Aug-08 12:56 292 11 gusting 13 27.8
2020-Aug-08 12:51 304 13 gusting 17 27.8
2020-Aug-08 12:46 338 12 gusting 14 27.8
2020-Aug-08 12:41 258 13 gusting 14 27.8
2020-Aug-08 12:36 265 13 gusting 14 27.8
2020-Aug-08 12:31 232 13 gusting 18 27.8
2020-Aug-08 12:26 265 10 gusting 15 27.8
2020-Aug-08 12:21 304 13 gusting 19 27.8
2020-Aug-08 12:16 292 11 gusting 13 27.8
2020-Aug-08 12:11 311 11 gusting 13 27.8
2020-Aug-08 12:06 294 13 gusting 19 27.8
2020-Aug-08 12:01 270 12 gusting 18 27.8
2020-Aug-08 11:56 242 13 gusting 18 27.8
2020-Aug-08 11:51 011 10 gusting 13 27.8
2020-Aug-08 11:46 285 8 gusting 13 27.2
2020-Aug-08 11:41 310 11 gusting 18 27.2
2020-Aug-08 11:36 259 11 gusting 20 27.2
2020-Aug-08 11:31 292 12 gusting 14 27.2
2020-Aug-08 11:26 292 10 gusting 13 27.2
2020-Aug-08 11:21 280 13 gusting 14 27.2
2020-Aug-08 11:16 290 12 gusting 15 27.2
2020-Aug-08 11:11 285 9 gusting 14 27.2
2020-Aug-08 11:06 296 10 gusting 13 27.2
2020-Aug-08 11:01 275 12 gusting 15 27.2
2020-Aug-08 10:56 241 11 gusting 15 27.2
2020-Aug-08 10:51 265 7 gusting 13 27.2
2020-Aug-08 10:46 292 9 gusting 13 27.2
2020-Aug-08 10:41 321 11 gusting 18 27.2
2020-Aug-08 10:36 248 17 gusting 18 27.2
2020-Aug-08 10:31 328 8 gusting 19 27.2
2020-Aug-08 10:26 280 12 gusting 15 27.2
2020-Aug-08 10:21 292 11 gusting 13 27.2
2020-Aug-08 10:16 305 12 gusting 17 27.2
2020-Aug-08 10:11 223 11 gusting 13 27.2
2020-Aug-08 10:06 312 6 gusting 10 27.2
2020-Aug-08 10:01 252 7 gusting 10 27.2
2020-Aug-08 09:56 332 5 gusting 10 27.2
2020-Aug-08 09:51 276 11 gusting 12 27.2
2020-Aug-08 09:46 280 11 gusting 13 26.7
2020-Aug-08 09:41 277 11 gusting 13 26.7
2020-Aug-08 09:36 238 10 gusting 13 26.7
2020-Aug-08 09:31 292 9 gusting 12 26.7
2020-Aug-08 09:26 231 9 gusting 15 26.7
2020-Aug-08 09:21 292 14 gusting 15 26.7
2020-Aug-08 09:16 270 12 gusting 15 26.7
2020-Aug-08 09:11 288 11 gusting 15 26.7
2020-Aug-08 09:06 292 8 gusting 13 26.7
2020-Aug-08 09:01 342 11 gusting 13 26.7
2020-Aug-08 08:56 227 12 gusting 14 26.7
2020-Aug-08 08:51 295 9 gusting 12 26.7
2020-Aug-08 08:46 290 6 gusting 12 26.7
2020-Aug-08 08:41 280 8 gusting 13 26.7
2020-Aug-08 08:36 286 8 gusting 13 26.7
2020-Aug-08 08:31 325 12 gusting 13 26.7
2020-Aug-08 08:26 358 12 gusting 13 26.7
2020-Aug-08 08:21 283 8 gusting 12 26.7
2020-Aug-08 08:16 324 6 gusting 8 26.7
2020-Aug-08 08:11 309 8 gusting 12 26.7
2020-Aug-08 08:06 292 10 gusting 13 26.1
2020-Aug-08 08:01 292 11 gusting 13 26.1
2020-Aug-08 07:56 302 10 gusting 11 26.1
2020-Aug-08 07:51 307 10 gusting 13 26.1
2020-Aug-08 07:46 292 12 gusting 13 26.1
2020-Aug-08 07:41 282 10 gusting 13 26.1
2020-Aug-08 07:36 262 9 gusting 12 26.1
2020-Aug-08 07:31 248 7 gusting 11 26.1
2020-Aug-08 07:26 257 6 gusting 13 26.1
2020-Aug-08 07:21 284 6 gusting 12 25.6
2020-Aug-08 07:16 277 11 gusting 19 25.6
2020-Aug-08 07:11 294 6 gusting 14 25.6
2020-Aug-08 07:06 299 9 gusting 12 25.6
2020-Aug-08 07:01 277 7 gusting 12 25.6
2020-Aug-08 06:56 317 7 gusting 8 25.6
2020-Aug-08 06:51 289 7 gusting 12 25.6
2020-Aug-08 06:46 277 11 gusting 13 25.6
2020-Aug-08 06:41 292 6 gusting 10 25.6
2020-Aug-08 06:36 298 8 gusting 11 25.6
2020-Aug-08 06:31 308 9 gusting 11 25.6
2020-Aug-08 06:26 292 6 gusting 10 25.6
2020-Aug-08 06:21 292 7 gusting 15 25.6
2020-Aug-08 06:16 307 7 gusting 8 25.6
2020-Aug-08 06:11 314 8 gusting 13 25.6
2020-Aug-08 06:06 306 11 gusting 13 25.0
2020-Aug-08 06:01 281 6 gusting 11 25.0
2020-Aug-08 05:56 292 6 gusting 13 25.0
2020-Aug-08 05:51 293 9 gusting 12 25.0
2020-Aug-08 05:46 329 9 gusting 13 25.0
2020-Aug-08 05:41 248 10 gusting 12 25.0
2020-Aug-08 05:36 292 11 gusting 12 25.0
2020-Aug-08 05:31 334 11 gusting 13 25.0
2020-Aug-08 05:26 215 9 gusting 11 25.0
2020-Aug-08 05:21 292 9 gusting 10 24.4
2020-Aug-08 05:16 24.4
2020-Aug-08 05:11 304 7 gusting 13 24.4
2020-Aug-08 05:06 292 9 gusting 10 24.4
2020-Aug-08 05:01 305 10 gusting 12 24.4
2020-Aug-08 04:56 301 8 gusting 13 24.4
2020-Aug-08 04:51 292 11 gusting 13 24.4
2020-Aug-08 04:46 303 10 gusting 13 24.4
2020-Aug-08 04:41 24.4
2020-Aug-08 04:36 315 9 gusting 12 24.4
2020-Aug-08 04:31 276 7 gusting 13 24.4
2020-Aug-08 04:26 315 7 gusting 10 24.4
2020-Aug-08 04:21 292 6 gusting 12 24.4
2020-Aug-08 04:16 292 13 gusting 13 24.4
2020-Aug-08 04:11 292 8 gusting 15 24.4
2020-Aug-08 04:06 299 11 gusting 12 23.9
2020-Aug-08 04:01 292 7 gusting 11 23.9
2020-Aug-08 03:56 303 11 gusting 13 23.9
2020-Aug-08 03:51 292 9 gusting 10 23.9
2020-Aug-08 03:46 292 6 gusting 12 23.9
2020-Aug-08 03:41 292 6 gusting 8 23.9
2020-Aug-08 03:36 292 7 gusting 12 23.9
2020-Aug-08 03:31 292 15 gusting 19 23.9
2020-Aug-08 03:26 300 11 gusting 12 23.9
2020-Aug-08 03:21 285 9 gusting 11 23.9
2020-Aug-08 03:16 292 6 gusting 12 23.3
2020-Aug-08 03:11 299 6 gusting 12 23.9
2020-Aug-08 03:06 281 8 gusting 11 23.9
2020-Aug-08 03:01 329 11 gusting 13 23.9
2020-Aug-08 02:56 292 8 gusting 12 23.9
2020-Aug-08 02:51 262 7 gusting 10 23.9
2020-Aug-08 02:46 292 10 gusting 11 23.9
2020-Aug-08 02:41 268 7 gusting 12 23.9
2020-Aug-08 02:36 257 8 gusting 13 23.9
2020-Aug-08 02:31 327 7 gusting 12 23.9
2020-Aug-08 02:26 279 9 gusting 11 23.9
2020-Aug-08 02:21 337 5 gusting 6 23.9
2020-Aug-08 02:16 292 8 gusting 12 23.9
2020-Aug-08 02:11 330 6 gusting 10 23.9
2020-Aug-08 02:06 292 8 gusting 11 23.9
2020-Aug-08 02:01 291 6 gusting 11 23.9
2020-Aug-08 01:56 265 8 gusting 15 23.9
2020-Aug-08 01:51 302 8 gusting 12 23.9
2020-Aug-08 01:46 292 12 gusting 13 23.9
2020-Aug-08 01:41 244 6 gusting 10 23.9
2020-Aug-08 01:36 286 7 gusting 14 23.9
2020-Aug-08 01:31 288 10 gusting 12 23.9
2020-Aug-08 01:26 309 8 gusting 13 23.9
2020-Aug-08 01:21 292 8 gusting 13 23.9
2020-Aug-08 01:16 338 7 gusting 12 23.9
2020-Aug-08 01:11 326 6 gusting 7 23.9
2020-Aug-08 01:06 261 7 gusting 11 23.9
2020-Aug-08 01:01 300 7 gusting 10 23.9
2020-Aug-08 00:56 302 7 gusting 10 23.9
2020-Aug-08 00:51 266 7 gusting 8 23.9
2020-Aug-08 00:46 274 6 gusting 11 23.9
2020-Aug-08 00:41 293 11 gusting 12 23.9
2020-Aug-08 00:36 309 10 gusting 13 23.9
2020-Aug-08 00:31 278 8 gusting 11 23.9
2020-Aug-08 00:26 316 4 gusting 15 23.9
2020-Aug-08 00:21 308 6 gusting 8 23.9
2020-Aug-08 00:16 309 6 gusting 7 23.9
2020-Aug-08 00:11 261 5 gusting 12 23.9
2020-Aug-08 00:06 320 5 gusting 10 23.9
2020-Aug-08 00:01 336 6 gusting 12 23.9
2020-Aug-07 23:56 323 10 gusting 12 23.9
2020-Aug-07 23:51 299 5 gusting 7 23.9
2020-Aug-07 23:46 308 6 gusting 10 23.9
2020-Aug-07 23:41 338 6 gusting 12 23.9
2020-Aug-07 23:36 004 7 gusting 15 24.4
2020-Aug-07 23:31 295 7 gusting 12 24.4
2020-Aug-07 23:26 330 8 gusting 12 23.9
2020-Aug-07 23:21 309 7 gusting 8 23.9
2020-Aug-07 23:16 292 8 gusting 8 24.4
2020-Aug-07 23:11 292 5 gusting 10 24.4
2020-Aug-07 23:06 279 6 gusting 8 24.4
2020-Aug-07 23:01 313 8 gusting 13 24.4
2020-Aug-07 22:56 297 5 gusting 13 24.4
2020-Aug-07 22:51 289 10 gusting 11 24.4
2020-Aug-07 22:46 322 10 gusting 12 24.4
2020-Aug-07 22:41 265 7 gusting 12 24.4
2020-Aug-07 22:36 315 8 gusting 13 24.4
2020-Aug-07 22:31 323 9 gusting 13 24.4
2020-Aug-07 22:26 292 9 gusting 12 24.4
2020-Aug-07 22:21 327 6 gusting 13 24.4
2020-Aug-07 22:16 207 10 gusting 12 24.4
2020-Aug-07 22:11 338 8 gusting 11 24.4
2020-Aug-07 22:06 290 10 gusting 15 24.4
2020-Aug-07 22:01 315 8 gusting 12 24.4
2020-Aug-07 21:56 292 6 gusting 12 24.4
2020-Aug-07 21:51 318 8 gusting 11 24.4
2020-Aug-07 21:46 314 8 gusting 12 24.4
2020-Aug-07 21:41 305 7 gusting 8 24.4
2020-Aug-07 21:36 282 5 gusting 12 24.4
2020-Aug-07 21:31 315 10 gusting 12 24.4
2020-Aug-07 21:26 338 7 gusting 10 24.4
2020-Aug-07 21:21 295 5 gusting 6 24.4
2020-Aug-07 21:16 293 5 gusting 10 24.4
2020-Aug-07 21:11 336 8 gusting 10 24.4
2020-Aug-07 21:06 300 8 gusting 10 24.4
2020-Aug-07 21:01 292 7 gusting 14 24.4
2020-Aug-07 20:56 333 7 gusting 7 24.4
2020-Aug-07 20:51 266 8 gusting 12 25.0
2020-Aug-07 20:46 324 6 gusting 13 25.0
2020-Aug-07 20:41 307 5 gusting 11 25.0
2020-Aug-07 20:36 296 8 gusting 11 24.4
2020-Aug-07 20:31 296 7 gusting 10 24.4
2020-Aug-07 20:26 309 7 gusting 8 24.4
2020-Aug-07 20:21 292 6 gusting 12 24.4
2020-Aug-07 20:16 304 11 gusting 12 24.4
2020-Aug-07 20:11 302 5 gusting 6 24.4
2020-Aug-07 20:06 237 2 gusting 6 24.4
2020-Aug-07 20:01 285 5 gusting 8 24.4
2020-Aug-07 19:56 282 6 gusting 8 24.4
2020-Aug-07 19:51 307 6 gusting 7 24.4
2020-Aug-07 19:46 300 5 gusting 7 24.4
2020-Aug-07 19:41 328 5 gusting 8 24.4
2020-Aug-07 19:36 320 8 gusting 10 24.4
2020-Aug-07 19:31 324 6 gusting 10 24.4
2020-Aug-07 19:26 308 4 gusting 7 24.4
2020-Aug-07 19:21 300 6 gusting 7 24.4
2020-Aug-07 19:16 292 5 gusting 8 24.4
2020-Aug-07 19:11 306 11 gusting 13 24.4
2020-Aug-07 19:06 218 11 gusting 13 24.4
2020-Aug-07 19:01 322 8 gusting 10 24.4
2020-Aug-07 18:56 292 6 gusting 15 24.4
2020-Aug-07 18:51 283 8 gusting 15 24.4
2020-Aug-07 18:46 292 5 gusting 10 24.4
2020-Aug-07 18:41 282 7 gusting 10 24.4
2020-Aug-07 18:36 278 8 gusting 10 24.4
2020-Aug-07 18:31 308 6 gusting 7 24.4
2020-Aug-07 18:26 315 6 gusting 6 25.0
2020-Aug-07 18:21 324 8 gusting 11 25.0
2020-Aug-07 18:16 324 6 gusting 7 25.0
2020-Aug-07 18:11 226 6 gusting 8 25.0
2020-Aug-07 18:06 300 8 gusting 8 25.0
2020-Aug-07 18:01 295 5 gusting 10 25.0
2020-Aug-07 17:56 292 9 gusting 10 25.0
2020-Aug-07 17:51 292 7 gusting 11 25.0
2020-Aug-07 17:46 260 6 gusting 12 25.0
2020-Aug-07 17:41 279 5 gusting 10 25.0
2020-Aug-07 17:36 254 2 gusting 10 25.0
2020-Aug-07 17:31 267 6 gusting 10 25.6
2020-Aug-07 17:26 323 8 gusting 10 25.6
2020-Aug-07 17:21 292 7 gusting 13 25.6
2020-Aug-07 17:16 289 9 gusting 13 25.6
2020-Aug-07 17:11 302 10 gusting 13 25.6
2020-Aug-07 17:06 298 10 gusting 12 25.6
2020-Aug-07 17:01 307 11 gusting 13 25.6
2020-Aug-07 16:56 263 10 gusting 12 25.6
2020-Aug-07 16:51 291 12 gusting 13 26.1
2020-Aug-07 16:46 292 8 gusting 13 27.2
2020-Aug-07 16:41 292 9 gusting 10 27.2
2020-Aug-07 16:36 259 7 gusting 10 27.2
2020-Aug-07 16:31 262 7 gusting 11 27.2
2020-Aug-07 16:26 283 8 gusting 10 27.2
2020-Aug-07 16:21 255 10 gusting 10 27.2
2020-Aug-07 16:16 322 8 gusting 12 27.8
2020-Aug-07 16:11 292 6 gusting 12 27.8
2020-Aug-07 16:06 301 7 gusting 12 27.8
2020-Aug-07 16:01 262 4 gusting 10 27.8
2020-Aug-07 15:56 278 7 gusting 11 27.8
2020-Aug-07 15:51 274 7 gusting 12 27.8
2020-Aug-07 15:46 286 11 gusting 15 27.8
2020-Aug-07 15:41 291 11 gusting 13 27.8
2020-Aug-07 15:36 292 8 gusting 15 27.8
2020-Aug-07 15:31 292 8 gusting 14 27.8
2020-Aug-07 15:26 292 14 gusting 14 27.8
2020-Aug-07 15:21 292 14 gusting 14 27.8
2020-Aug-07 15:16 257 9 gusting 11 27.8
2020-Aug-07 15:11 248 8 gusting 12 27.8
2020-Aug-07 15:06 254 8 gusting 13 27.8
2020-Aug-07 15:01 315 14 gusting 17 27.8
2020-Aug-07 14:56 008 8 gusting 11 27.8
2020-Aug-07 14:51 248 10 gusting 10 27.8
2020-Aug-07 14:46 276 8 gusting 10 27.8
2020-Aug-07 14:41 311 12 gusting 13 27.8
2020-Aug-07 14:36 258 7 gusting 10 27.8
2020-Aug-07 14:31 022 9 gusting 11 28.3
2020-Aug-07 14:26 315 11 gusting 13 28.3
2020-Aug-07 14:21 292 11 gusting 13 28.3
2020-Aug-07 14:16 292 12 gusting 13 28.3
2020-Aug-07 14:11 292 8 gusting 8 27.8
2020-Aug-07 14:06 292 8 gusting 8 28.3
2020-Aug-07 14:01 292 8 gusting 13 28.3
2020-Aug-07 13:56 248 13 gusting 13 28.3
2020-Aug-07 13:51 292 12 gusting 13 28.3
2020-Aug-07 13:46 292 11 gusting 19 27.8
2020-Aug-07 13:41 326 14 gusting 19 28.3
2020-Aug-07 13:36 272 10 gusting 14 28.3
2020-Aug-07 13:31 292 10 gusting 13 28.9
2020-Aug-07 13:26 315 11 gusting 13 28.9
2020-Aug-07 13:21 298 8 gusting 13 28.3
2020-Aug-07 13:16 260 8 gusting 15 27.8
2020-Aug-07 13:11 248 10 gusting 12 27.8
2020-Aug-07 13:06 281 8 gusting 13 27.8
2020-Aug-07 13:01 301 11 gusting 18 28.3
2020-Aug-07 12:56 292 12 gusting 14 28.3
2020-Aug-07 12:51 248 8 gusting 13 28.3
2020-Aug-07 12:46 334 10 gusting 13 27.8
2020-Aug-07 12:41 292 8 gusting 15 27.8
2020-Aug-07 12:36 314 8 gusting 19 27.8
2020-Aug-07 12:31 292 15 gusting 18 27.8
2020-Aug-07 12:26 289 13 gusting 18 27.8
2020-Aug-07 12:21 299 13 gusting 15 27.8
2020-Aug-07 12:16 326 14 gusting 15 27.8
2020-Aug-07 12:11 248 11 gusting 13 27.8
2020-Aug-07 12:06 293 10 gusting 14 27.8
2020-Aug-07 12:01 248 13 gusting 13 27.8
2020-Aug-07 11:56 256 12 gusting 14 27.8
2020-Aug-07 11:51 261 12 gusting 17 27.8
2020-Aug-07 11:46 258 12 gusting 18 27.8
2020-Aug-07 11:41 297 10 gusting 12 27.8
2020-Aug-07 11:36 292 13 gusting 15 27.8
2020-Aug-07 11:31 292 9 gusting 13 27.8
2020-Aug-07 11:26 227 13 gusting 14 27.8
2020-Aug-07 11:21 315 13 gusting 13 27.8
2020-Aug-07 11:16 282 15 gusting 19 27.8
2020-Aug-07 11:11 291 14 gusting 14 27.8
2020-Aug-07 11:06 292 6 gusting 12 27.8
2020-Aug-07 11:01 272 10 gusting 13 27.8
2020-Aug-07 10:56 288 12 gusting 14 27.8
2020-Aug-07 10:51 187 9 gusting 12 27.8
2020-Aug-07 10:46 278 9 gusting 12 27.8
2020-Aug-07 10:41 292 14 gusting 15 27.8
2020-Aug-07 10:36 297 10 gusting 15 27.8
2020-Aug-07 10:31 261 13 gusting 15 27.2
2020-Aug-07 10:26 234 10 gusting 12 27.2
2020-Aug-07 10:21 261 10 gusting 12 27.8
2020-Aug-07 10:16 219 11 gusting 14 27.2
2020-Aug-07 10:11 313 9 gusting 12 27.2
2020-Aug-07 10:06 269 13 gusting 14 27.2
2020-Aug-07 10:01 324 10 gusting 13 27.2
2020-Aug-07 09:56 248 10 gusting 14 27.2
2020-Aug-07 09:51 310 8 gusting 13 27.2
2020-Aug-07 09:46 260 13 gusting 13 27.2
2020-Aug-07 09:41 268 10 gusting 14 27.2
2020-Aug-07 09:36 302 12 gusting 14 27.2
2020-Aug-07 09:31 268 7 gusting 17 27.2
2020-Aug-07 09:26 316 13 gusting 13 27.2
2020-Aug-07 09:21 274 8 gusting 14 27.2
2020-Aug-07 09:16 292 11 gusting 13 27.2
2020-Aug-07 09:11 280 8 gusting 12 27.2
2020-Aug-07 09:06 309 10 gusting 13 27.2
2020-Aug-07 09:01 306 11 gusting 13 27.2
2020-Aug-07 08:56 260 11 gusting 13 27.2
2020-Aug-07 08:51 258 13 gusting 15 27.2
2020-Aug-07 08:46 299 7 gusting 15 27.2
2020-Aug-07 08:41 310 13 gusting 15 27.2
2020-Aug-07 08:36 309 14 gusting 14 26.7
2020-Aug-07 08:31 250 13 gusting 13 27.2
2020-Aug-07 08:26 225 11 gusting 13 27.2
2020-Aug-07 08:21 309 11 gusting 13 27.2
2020-Aug-07 08:16 297 12 gusting 14 27.2
2020-Aug-07 08:11 323 11 gusting 14 27.2
2020-Aug-07 08:06 309 10 gusting 14 27.2
2020-Aug-07 08:01 292 10 gusting 15 27.2